Location: Leipzig
(51.3392°N, 12.3528°E)
Time: 16:15:04
(UTC+01:00)

ISS - Pass Details

Date: 11 November 2017
Orbit: 402 x 407 km, 51.6° (Epoch: 22 November)

Event Time Altitude Azimuth Distance (km) Brightness Sun altitude
Exits shadow 05:09:51 77° 94° (E) 418 -3.8 -20.5°
Drops below altitude 10° 05:12:54 10° 98° (E) 1,456 0.2 -20.0°
Sets 05:14:59 0° 99° (E) 2,315 1.6 -19.7°
